Location: Arezzo
(43.4170°N, 11.8830°E)
Time: 02:29:20
(UTC+02:00)

STARLINK-2717 - Pass Details

Date: 24 June 2021
Orbit: 546 x 548 km, 53.1° (Epoch: 23 July)

Event Time Altitude Azimuth Distance (km) Brightness Sun altitude
Exits shadow 04:03:41 19° 201° (SSW) 1,336 5.0 -12.8°
Maximum altitude 04:06:17 43° 137° (SE) 768 4.3 -12.5°
Drops below altitude 10° 04:10:12 10° 65° (ENE) 1,818 7.4 -12.0°
Sets 04:12:31 0° 59° (ENE) 2,715 8.7 -11.7°
